CW5084 Weather Reports


time (UTC)temp
C
wind
direction
speed
KPH
gust
KPH
rain 1hr
cm
rain 24hr
cm
rain mn
cm
humidity
%
barometer
mb
20260509174028 11 196 4.8 19.3 0.00 0.05 0.05 85 1006.4
20260509171028 11 182 3.2 22.5 0.00 0.05 0.05 85 1006.5
20260509170058 11 189 9.7 16.1 0.00 0.05 0.05 86 1006.5
20260509163028 10 196 6.4 19.3 0.00 0.08 0.05 86 1006.7
20260509162028 10 192 12.9 19.3 0.00 0.08 0.05 86 1006.8
20260509161028 10 195 3.2 19.3 0.00 0.08 0.05 86 1006.9
20260509160057 10 195 17.7 20.9 0.00 0.08 0.05 87 1006.9
20260509155027 10 186 8.0 19.3 0.00 0.08 0.05 87 1006.9
20260509154027 10 190 11.3 19.3 0.00 0.08 0.05 88 1006.9
20260509153027 10 181 6.4 14.5 0.00 0.08 0.05 89 1007.1
20260509152027 9 186 8.0 14.5 0.00 0.08 0.05 89 1007.1
20260509151027 9 193 4.8 14.5 0.00 0.08 0.05 90 1007.2
20260509150027 9 196 11.3 19.3 0.00 0.08 0.05 89 1007.2
20260509145027 9 176 1.6 12.9 0.00 0.08 0.05 90 1007.2
20260509143027 9 188 6.4 14.5 0.00 0.08 0.05 90 1007.3
20260509141027 9 186 6.4 12.9 0.00 0.08 0.05 91 1007.4
20260509140057 8 190 4.8 12.9 0.00 0.08 0.05 91 1007.4
20260509135027 8 186 6.4 12.9 0.03 0.08 0.05 91 1007.5
20260509134027 8 188 11.3 16.1 0.03 0.10 0.05 92 1007.6
20260509133027 8 165 8.0 11.3 0.03 0.13 0.05 92 1007.6
20260509132027 8 167 6.4 16.1 0.03 0.18 0.05 91 1007.4
20260509131027 8 178 3.2 16.1 0.05 0.18 0.05 92 1007.5
20260509130057 8 189 3.2 16.1 0.05 0.18 0.05 92 1007.6
20260509125027 8 186 4.8 11.3 0.03 0.15 0.03 92 1007.8
20260509123027 7 189 6.4 11.3 0.03 0.15 0.03 91 1008.0
20260509122027 7 188 8.0 9.7 0.03 0.15 0.03 91 1008.0
20260509121057 7 191 1.6 12.9 0.00 0.13 0.00 90 1008.2
20260509120027 7 192 3.2 16.1 0.00 0.13 0.00 90 1008.2
20260509115057 7 199 14.5 16.1 0.00 0.13 0.00 90 1008.6
20260509114056 7 273 4.8 11.3 0.00 0.13 0.00 89 1008.6
20260509112056 7 292 0.0 3.2 0.00 0.13 0.00 87 1008.5
20260509110056 6 292 0.0 3.2 0.00 0.13 0.00 87 1008.5
20260509105026 6 292 1.6 3.2 0.00 0.13 0.00 86 1008.6
20260509104056 6 292 1.6 3.2 0.00 0.13 0.00 86 1008.3
20260509103056 6 292 0.0 3.2 0.00 0.13 0.00 85 1008.4
20260509102056 6 292 3.2 4.8 0.00 0.13 0.00 85 1008.4
20260509101056 6 292 4.8 8.0 0.00 0.13 0.00 84 1008.4
20260509100056 6 295 4.8 6.4 0.00 0.13 0.00 84 1008.4
20260509095056 5 295 3.2 4.8 0.00 0.13 0.00 82 1008.2
20260509094026 5 295 0.0 4.8 0.00 0.13 0.00 83 1008.0
20260509093026 5 295 0.0 4.8 0.00 0.13 0.00 82 1007.9
20260509091056 5 295 1.6 4.8 0.00 0.13 0.00 81 1008.2
20260509090056 5 295 3.2 4.8 0.00 0.13 0.00 80 1008.3
20260509085056 5 295 1.6 3.2 0.00 0.13 0.00 79 1008.6
20260509084056 5 295 0.0 1.6 0.00 0.13 0.00 77 1008.7
20260509083026 5 295 0.0 0.0 0.00 0.13 0.00 76 1008.9
20260509082056 5 295 0.0 1.6 0.00 0.13 0.00 76 1008.8
20260509081056 5 295 0.0 1.6 0.00 0.13 0.00 75 1008.8
20260509080056 5 295 0.0 0.0 0.00 0.13 0.00 74 1008.9
20260509075056 5 295 0.0 4.8 0.00 0.13 0.00 74 1008.8
20260509074026 5 295 4.8 4.8 0.00 0.13 0.00 73 1008.9
20260509073026 5 295 0.0 4.8 0.00 0.13 0.00 73 1009.0
20260509072026 5 295 1.6 4.8 0.00 0.13 0.00 72 1008.9
20260509070056 6 295 3.2 6.4 0.00 0.13 0.00 69 1009.1
20260509065055 6 295 0.0 3.2 0.00 0.13 0.00 67 1008.9
20260509064056 5 295 1.6 3.2 0.00 0.13 0.00 68 1009.0
20260509063055 5 295 1.6 3.2 0.00 0.13 0.00 69 1009.1
20260509062026 5 295 0.0 3.2 0.00 0.13 0.00 71 1009.2
20260509061055 5 295 0.0 3.2 0.00 0.13 0.00 72 1009.3
20260509055025 5 295 0.0 4.8 0.00 0.13 0.00 73 1009.5
20260509054055 5 295 0.0 4.8 0.00 0.13 0.00 73 1009.7
20260509053025 5 295 0.0 4.8 0.00 0.13 0.00 74 1009.9
20260509052025 4 295 4.8 4.8 0.00 0.13 0.00 80 1009.7
20260509051025 3 295 0.0 0.0 0.00 0.13 0.00 85 1009.9
20260509045026 3 295 0.0 0.0 0.00 0.13 0.00 84 1009.7
20260509044055 3 295 0.0 0.0 0.00 0.13 0.00 84 1009.8
20260509043055 3 295 0.0 0.0 0.00 0.13 0.00 83 1009.8
20260509042025 3 295 0.0 1.6 0.00 0.13 0.00 82 1009.8
20260509041055 3 295 0.0 0.0 0.00 0.13 0.00 82 1009.8
20260509040025 3 295 0.0 0.0 0.00 0.13 0.00 83 1009.8
20260509035055 3 295 0.0 0.0 0.00 0.13 0.13 84 1009.8
20260509034055 2 295 0.0 0.0 0.00 0.13 0.13 83 1009.7
20260509033055 2 295 0.0 0.0 0.00 0.13 0.13 84 1009.7
20260509032054 2 295 0.0 0.0 0.00 0.13 0.13 82 1009.8
20260509031055 2 295 0.0 0.0 0.00 0.13 0.13 81 1009.8
20260509030055 2 295 0.0 4.8 0.00 0.13 0.13 81 1009.8
20260509025055 2 295 0.0 0.0 0.00 0.13 0.13 81 1009.8
20260509024054 2 295 0.0 0.0 0.00 0.13 0.13 81 1009.9
20260509023055 2 295 0.0 0.0 0.00 0.13 0.13 80 1009.9
20260509022025 2 295 0.0 0.0 0.00 0.13 0.13 80 1010.0
20260509021055 2 295 0.0 0.0 0.00 0.13 0.13 78 1010.0
20260509020054 3 295 0.0 0.0 0.00 0.13 0.13 77 1010.1
20260509015054 3 295 0.0 3.2 0.00 0.13 0.13 76 1009.8
20260509014054 3 295 0.0 4.8 0.00 0.13 0.13 75 1009.8
20260509012054 4 295 3.2 6.4 0.00 0.13 0.13 73 1009.6
20260509011054 4 295 1.6 3.2 0.00 0.13 0.13 72 1009.3
20260509010054 5 295 0.0 3.2 0.00 0.13 0.13 70 1009.3
20260509004054 6 295 1.6 3.2 0.00 0.13 0.13 66 1009.5
20260509003054 6 295 0.0 3.2 0.00 0.13 0.13 64 1009.3
20260509002054 7 295 0.0 3.2 0.00 0.13 0.13 62 1009.4
20260509001054 7 295 1.6 3.2 0.00 0.13 0.13 60 1009.3
20260508235054 9 295 0.0 0.0 0.00 0.13 0.13 54 1009.3
20260508234054 9 295 0.0 4.8 0.00 0.13 0.13 52 1009.2
20260508233054 10 295 3.2 6.4 0.00 0.13 0.13 50 1009.3
20260508232054 10 295 3.2 6.4 0.00 0.13 0.13 47 1009.3
20260508231054 10 295 3.2 8.0 0.00 0.13 0.13 47 1009.2
20260508224054 10 290 4.8 14.5 0.00 0.13 0.13 46 1009.0
20260508223053 10 310 6.4 16.1 0.00 0.13 0.13 47 1009.0
20260508222054 10 311 4.8 16.1 0.00 0.13 0.13 46 1009.1
20260508220053 10 323 4.8 20.9 0.00 0.13 0.13 46 1009.2
20260508215053 10 305 6.4 17.7 0.00 0.13 0.13 49 1009.2
20260508214054 10 283 6.4 16.1 0.00 0.13 0.13 50 1009.3
20260508213054 10 269 14.5 20.9 0.00 0.13 0.13 48 1009.2
20260508211054 9 255 6.4 17.7 0.00 0.13 0.13 54 1009.2
20260508210053 10 248 8.0 17.7 0.00 0.13 0.13 49 1009.4
20260508205053 10 306 4.8 20.9 0.00 0.13 0.13 53 1009.6
20260508204053 10 294 17.7 24.1 0.00 0.13 0.13 55 1009.7
20260508203053 10 229 4.8 20.9 0.00 0.13 0.13 55 1009.6
20260508202054 10 215 9.7 24.1 0.00 0.13 0.13 53 1009.6
20260508201053 10 215 8.0 22.5 0.00 0.13 0.13 52 1009.6
20260508200053 9 282 11.3 24.1 0.00 0.13 0.13 57 1009.8
20260508195053 9 266 14.5 24.1 0.00 0.13 0.13 55 1010.0
20260508194053 9 250 11.3 19.3 0.00 0.13 0.13 59 1010.2
20260508193053 8 213 6.4 22.5 0.00 0.13 0.13 57 1009.9
20260508191053 8 214 6.4 14.5 0.00 0.13 0.13 66 1010.0
20260508190052 8 216 9.7 19.3 0.00 0.13 0.13 68 1010.2
20260508185053 8 202 8.0 19.3 0.00 0.13 0.13 68 1010.5
20260508184052 7 236 16.1 19.3 0.00 0.13 0.13 69 1010.5
20260508183052 7 219 14.5 22.5 0.00 0.13 0.13 69 1010.6
20260508182053 8 227 12.9 22.5 0.00 0.13 0.13 72 1010.5
20260508181053 7 246 8.0 25.7 0.00 0.13 0.13 73 1010.6
20260508175052 7 225 12.9 20.9 0.00 0.13 0.13 77 1010.4